Time,TemperatureF,DewpointF,PressureIn,WindDirection,WindDirectionDegrees,WindSpeedMPH,WindSpeedGustMPH,Humidity,HourlyPrecipIn,Conditions,Clouds,dailyrainin,SoftwareType,DateUTC
2013-08-03 00:00:00,83.0,77.0,-100.00,SE,134,19.0,-999.0,81,0.00,,,-99.99,,2013-08-03 05:00:00,
2013-08-03 00:22:00,83.0,77.0,-100.00,SE,134,19.0,-999.0,81,0.00,,,-99.99,,2013-08-03 05:22:00,
2013-08-03 00:32:00,83.0,77.0,-100.00,SE,134,19.0,-999.0,81,0.00,,,-99.99,,2013-08-03 05:32:00,
2013-08-03 00:42:00,83.0,77.0,-100.00,SE,134,19.0,-999.0,81,0.00,,,-99.99,,2013-08-03 05:42:00,
2013-08-03 00:52:00,83.0,77.0,-100.00,SE,134,19.0,-999.0,81,0.00,,,-99.99,,2013-08-03 05:52:00,
2013-08-03 01:00:00,83.0,77.0,-100.00,SE,136,18.0,-999.0,81,0.00,,,-99.99,,2013-08-03 06:00:00,
2013-08-03 01:22:00,83.0,77.0,-100.00,SE,136,18.0,-999.0,81,0.00,,,-99.99,,2013-08-03 06:22:00,
2013-08-03 01:32:00,83.0,77.0,-100.00,SE,136,18.0,-999.0,81,0.00,,,-99.99,,2013-08-03 06:32:00,
2013-08-03 01:42:00,83.0,77.0,-100.00,SE,136,18.0,-999.0,81,0.00,,,-99.99,,2013-08-03 06:42:00,
2013-08-03 01:52:00,83.0,77.0,-100.00,SE,136,18.0,-999.0,81,0.00,,,-99.99,,2013-08-03 06:52:00,
2013-08-03 02:00:00,83.0,77.0,-100.00,SE,139,17.0,-999.0,82,0.00,,,-99.99,,2013-08-03 07:00:00,
2013-08-03 02:22:00,83.0,77.0,-100.00,SE,139,17.0,-999.0,82,0.00,,,-99.99,,2013-08-03 07:22:00,
2013-08-03 02:32:00,83.0,77.0,-100.00,SE,139,17.0,-999.0,82,0.00,,,-99.99,,2013-08-03 07:32:00,
2013-08-03 02:43:00,83.0,77.0,-100.00,SE,139,17.0,-999.0,82,0.00,,,-99.99,,2013-08-03 07:43:00,
2013-08-03 02:53:00,83.0,77.0,-100.00,SE,139,17.0,-999.0,82,0.00,,,-99.99,,2013-08-03 07:53:00,
2013-08-03 03:00:00,83.0,74.0,-100.00,SSE,148,19.0,-999.0,75,0.00,,,-99.99,,2013-08-03 08:00:00,
2013-08-03 03:22:00,83.0,74.0,-100.00,SSE,148,19.0,-999.0,75,0.00,,,-99.99,,2013-08-03 08:22:00,
2013-08-03 03:32:00,83.0,74.0,-100.00,SSE,148,19.0,-999.0,75,0.00,,,-99.99,,2013-08-03 08:32:00,
2013-08-03 03:43:00,83.0,74.0,-100.00,SSE,148,19.0,-999.0,75,0.00,,,-99.99,,2013-08-03 08:43:00,
2013-08-03 03:52:00,83.0,74.0,-100.00,SSE,148,19.0,-999.0,75,0.00,,,-99.99,,2013-08-03 08:52:00,
2013-08-03 04:00:00,82.0,76.0,-100.00,SSE,159,16.0,-999.0,82,0.00,,,-99.99,,2013-08-03 09:00:00,
2013-08-03 04:22:00,82.0,76.0,-100.00,SSE,159,16.0,-999.0,82,0.00,,,-99.99,,2013-08-03 09:22:00,
2013-08-03 04:32:00,82.0,76.0,-100.00,SSE,159,16.0,-999.0,82,0.00,,,-99.99,,2013-08-03 09:32:00,
2013-08-03 04:43:00,82.0,76.0,-100.00,SSE,159,16.0,-999.0,82,0.00,,,-99.99,,2013-08-03 09:43:00,
2013-08-03 04:53:00,82.0,76.0,-100.00,SSE,159,16.0,-999.0,82,0.00,,,-99.99,,2013-08-03 09:53:00,
2013-08-03 05:00:00,82.0,77.0,-100.00,SSE,166,13.0,-999.0,85,0.00,,,-99.99,,2013-08-03 10:00:00,
2013-08-03 05:22:00,82.0,77.0,-100.00,SSE,166,13.0,-999.0,85,0.00,,,-99.99,,2013-08-03 10:22:00,
2013-08-03 05:32:00,82.0,77.0,-100.00,SSE,166,13.0,-999.0,85,0.00,,,-99.99,,2013-08-03 10:32:00,
2013-08-03 05:42:00,82.0,77.0,-100.00,SSE,166,13.0,-999.0,85,0.00,,,-99.99,,2013-08-03 10:42:00,
2013-08-03 05:53:00,82.0,77.0,-100.00,SSE,166,13.0,-999.0,85,0.00,,,-99.99,,2013-08-03 10:53:00,
2013-08-03 06:00:00,82.0,78.0,-100.00,South,175,8.0,-999.0,87,0.00,,,-99.99,,2013-08-03 11:00:00,
2013-08-03 06:22:00,82.0,78.0,-100.00,South,175,8.0,-999.0,87,0.00,,,-99.99,,2013-08-03 11:22:00,
2013-08-03 06:32:00,82.0,78.0,-100.00,South,175,8.0,-999.0,87,0.00,,,-99.99,,2013-08-03 11:32:00,
2013-08-03 06:43:00,82.0,78.0,-100.00,South,175,8.0,-999.0,87,0.00,,,-99.99,,2013-08-03 11:43:00,
2013-08-03 06:53:00,82.0,78.0,-100.00,South,175,8.0,-999.0,87,0.00,,,-99.99,,2013-08-03 11:53:00,
2013-08-03 07:00:00,82.0,78.0,-100.00,South,175,8.0,-999.0,87,0.00,,,-99.99,,2013-08-03 12:00:00,
2013-08-03 07:22:00,82.0,78.0,-100.00,South,175,8.0,-999.0,87,0.00,,,-99.99,,2013-08-03 12:22:00,
2013-08-03 07:32:00,82.0,78.0,-100.00,South,175,8.0,-999.0,87,0.00,,,-99.99,,2013-08-03 12:32:00,
2013-08-03 07:43:00,82.0,78.0,-100.00,South,175,8.0,-999.0,87,0.00,,,-99.99,,2013-08-03 12:43:00,
2013-08-03 07:53:00,82.0,78.0,-100.00,South,175,8.0,-999.0,87,0.00,,,-99.99,,2013-08-03 12:53:00,
2013-08-03 08:00:00,83.0,78.0,-100.00,SSE,148,11.0,-999.0,86,0.00,,,-99.99,,2013-08-03 13:00:00,
2013-08-03 08:22:00,83.0,78.0,-100.00,SSE,148,11.0,-999.0,86,0.00,,,-99.99,,2013-08-03 13:22:00,
2013-08-03 08:33:00,83.0,78.0,-100.00,SSE,148,11.0,-999.0,86,0.00,,,-99.99,,2013-08-03 13:33:00,
2013-08-03 08:43:00,83.0,78.0,-100.00,SSE,148,11.0,-999.0,86,0.00,,,-99.99,,2013-08-03 13:43:00,
2013-08-03 08:52:00,83.0,78.0,-100.00,SSE,148,11.0,-999.0,86,0.00,,,-99.99,,2013-08-03 13:52:00,
2013-08-03 09:00:00,83.0,78.0,-100.00,SSE,157,12.0,-999.0,84,0.00,,,-99.99,,2013-08-03 14:00:00,
2013-08-03 09:22:00,83.0,78.0,-100.00,SSE,157,12.0,-999.0,84,0.00,,,-99.99,,2013-08-03 14:22:00,
2013-08-03 09:32:00,83.0,78.0,-100.00,SSE,157,12.0,-999.0,84,0.00,,,-99.99,,2013-08-03 14:32:00,
2013-08-03 09:42:00,83.0,78.0,-100.00,SSE,157,12.0,-999.0,84,0.00,,,-99.99,,2013-08-03 14:42:00,
2013-08-03 09:52:00,83.0,78.0,-100.00,SSE,157,12.0,-999.0,84,0.00,,,-99.99,,2013-08-03 14:52:00,
2013-08-03 10:00:00,84.0,76.0,-100.00,SSE,160,13.0,-999.0,78,0.00,,,-99.99,,2013-08-03 15:00:00,
2013-08-03 10:23:00,84.0,76.0,-100.00,SSE,160,13.0,-999.0,78,0.00,,,-99.99,,2013-08-03 15:23:00,
2013-08-03 10:32:00,84.0,76.0,-100.00,SSE,160,13.0,-999.0,78,0.00,,,-99.99,,2013-08-03 15:32:00,
2013-08-03 10:43:00,84.0,76.0,-100.00,SSE,160,13.0,-999.0,78,0.00,,,-99.99,,2013-08-03 15:43:00,
2013-08-03 10:53:00,84.0,76.0,-100.00,SSE,160,13.0,-999.0,78,0.00,,,-99.99,,2013-08-03 15:53:00,
2013-08-03 11:00:00,84.0,77.0,-100.00,SE,144,14.0,-999.0,79,0.00,,,-99.99,,2013-08-03 16:00:00,
2013-08-03 11:22:00,84.0,77.0,-100.00,SE,144,14.0,-999.0,79,0.00,,,-99.99,,2013-08-03 16:22:00,
2013-08-03 11:33:00,84.0,77.0,-100.00,SE,144,14.0,-999.0,79,0.00,,,-99.99,,2013-08-03 16:33:00,
2013-08-03 11:43:00,84.0,77.0,-100.00,SE,144,14.0,-999.0,79,0.00,,,-99.99,,2013-08-03 16:43:00,
2013-08-03 11:53:00,84.0,77.0,-100.00,SE,144,14.0,-999.0,79,0.00,,,-99.99,,2013-08-03 16:53:00,
2013-08-03 12:00:00,84.0,77.0,-100.00,SE,136,14.0,-999.0,78,0.00,,,-99.99,,2013-08-03 17:00:00,
2013-08-03 12:22:00,84.0,77.0,-100.00,SE,136,14.0,-999.0,78,0.00,,,-99.99,,2013-08-03 17:22:00,
2013-08-03 12:32:00,84.0,77.0,-100.00,SE,136,14.0,-999.0,78,0.00,,,-99.99,,2013-08-03 17:32:00,
2013-08-03 12:43:00,84.0,77.0,-100.00,SE,136,14.0,-999.0,78,0.00,,,-99.99,,2013-08-03 17:43:00,
2013-08-03 12:52:00,84.0,77.0,-100.00,SE,136,14.0,-999.0,78,0.00,,,-99.99,,2013-08-03 17:52:00,
2013-08-03 13:00:00,84.0,76.0,-100.00,SE,144,14.0,-999.0,76,0.00,,,-99.99,,2013-08-03 18:00:00,
2013-08-03 13:22:00,84.0,76.0,-100.00,SE,144,14.0,-999.0,76,0.00,,,-99.99,,2013-08-03 18:22:00,
2013-08-03 13:32:00,84.0,76.0,-100.00,SE,144,14.0,-999.0,76,0.00,,,-99.99,,2013-08-03 18:32:00,
2013-08-03 13:43:00,84.0,76.0,-100.00,SE,144,14.0,-999.0,76,0.00,,,-99.99,,2013-08-03 18:43:00,
2013-08-03 13:53:00,84.0,76.0,-100.00,SE,144,14.0,-999.0,76,0.00,,,-99.99,,2013-08-03 18:53:00,
2013-08-03 14:00:00,85.0,77.0,-100.00,SE,136,13.0,-999.0,76,0.00,,,-99.99,,2013-08-03 19:00:00,
2013-08-03 14:22:00,85.0,77.0,-100.00,SE,136,13.0,-999.0,76,0.00,,,-99.99,,2013-08-03 19:22:00,
2013-08-03 14:32:00,85.0,77.0,-100.00,SE,136,13.0,-999.0,76,0.00,,,-99.99,,2013-08-03 19:32:00,
2013-08-03 14:43:00,85.0,77.0,-100.00,SE,136,13.0,-999.0,76,0.00,,,-99.99,,2013-08-03 19:43:00,
2013-08-03 14:52:00,85.0,77.0,-100.00,SE,136,13.0,-999.0,76,0.00,,,-99.99,,2013-08-03 19:52:00,
2013-08-03 15:00:00,85.0,77.0,-100.00,SE,134,14.0,-999.0,77,0.00,,,-99.99,,2013-08-03 20:00:00,
2013-08-03 15:22:00,85.0,77.0,-100.00,SE,134,14.0,-999.0,77,0.00,,,-99.99,,2013-08-03 20:22:00,
2013-08-03 15:32:00,85.0,77.0,-100.00,SE,134,14.0,-999.0,77,0.00,,,-99.99,,2013-08-03 20:32:00,
2013-08-03 15:42:00,85.0,77.0,-100.00,SE,134,14.0,-999.0,77,0.00,,,-99.99,,2013-08-03 20:42:00,
2013-08-03 15:52:00,85.0,77.0,-100.00,SE,134,14.0,-999.0,77,0.00,,,-99.99,,2013-08-03 20:52:00,
2013-08-03 16:00:00,85.0,77.0,-100.00,SE,136,17.0,-999.0,78,0.00,,,-99.99,,2013-08-03 21:00:00,
2013-08-03 16:22:00,85.0,77.0,-100.00,SE,136,17.0,-999.0,78,0.00,,,-99.99,,2013-08-03 21:22:00,
2013-08-03 16:32:00,85.0,77.0,-100.00,SE,136,17.0,-999.0,78,0.00,,,-99.99,,2013-08-03 21:32:00,
2013-08-03 16:42:00,85.0,77.0,-100.00,SE,136,17.0,-999.0,78,0.00,,,-99.99,,2013-08-03 21:42:00,
2013-08-03 16:52:00,85.0,77.0,-100.00,SE,136,17.0,-999.0,78,0.00,,,-99.99,,2013-08-03 21:52:00,
2013-08-03 17:00:00,85.0,77.0,-100.00,SE,138,17.0,-999.0,77,0.00,,,-99.99,,2013-08-03 22:00:00,
2013-08-03 17:22:00,85.0,77.0,-100.00,SE,138,17.0,-999.0,77,0.00,,,-99.99,,2013-08-03 22:22:00,
2013-08-03 17:33:00,85.0,77.0,-100.00,SE,138,17.0,-999.0,77,0.00,,,-99.99,,2013-08-03 22:33:00,
2013-08-03 17:43:00,85.0,77.0,-100.00,SE,138,17.0,-999.0,77,0.00,,,-99.99,,2013-08-03 22:43:00,
2013-08-03 17:52:00,85.0,77.0,-100.00,SE,138,17.0,-999.0,77,0.00,,,-99.99,,2013-08-03 22:52:00,
2013-08-03 18:00:00,85.0,78.0,-100.00,SE,131,18.0,-999.0,79,0.00,,,-99.99,,2013-08-03 23:00:00,
2013-08-03 18:22:00,85.0,78.0,-100.00,SE,131,18.0,-999.0,79,0.00,,,-99.99,,2013-08-03 23:22:00,
2013-08-03 18:32:00,85.0,78.0,-100.00,SE,131,18.0,-999.0,79,0.00,,,-99.99,,2013-08-03 23:32:00,
2013-08-03 18:43:00,85.0,78.0,-100.00,SE,131,18.0,-999.0,79,0.00,,,-99.99,,2013-08-03 23:43:00,
2013-08-03 18:52:00,85.0,78.0,-100.00,SE,131,18.0,-999.0,79,0.00,,,-99.99,,2013-08-03 23:52:00,
2013-08-03 19:00:00,85.0,78.0,-100.00,SE,130,17.0,-999.0,79,0.00,,,-99.99,,2013-08-04 00:00:00,
2013-08-03 19:22:00,85.0,78.0,-100.00,SE,130,17.0,-999.0,79,0.00,,,-99.99,,2013-08-04 00:22:00,
2013-08-03 19:32:00,85.0,78.0,-100.00,SE,130,17.0,-999.0,79,0.00,,,-99.99,,2013-08-04 00:32:00,
2013-08-03 19:42:00,85.0,78.0,-100.00,SE,130,17.0,-999.0,79,0.00,,,-99.99,,2013-08-04 00:42:00,
2013-08-03 19:52:00,85.0,78.0,-100.00,SE,130,17.0,-999.0,79,0.00,,,-99.99,,2013-08-04 00:52:00,
2013-08-03 20:00:00,85.0,77.0,-100.00,SE,132,17.0,-999.0,78,0.00,,,-99.99,,2013-08-04 01:00:00,
2013-08-03 20:22:00,85.0,77.0,-100.00,SE,132,17.0,-999.0,78,0.00,,,-99.99,,2013-08-04 01:22:00,
2013-08-03 20:32:00,85.0,77.0,-100.00,SE,132,17.0,-999.0,78,0.00,,,-99.99,,2013-08-04 01:32:00,
2013-08-03 20:42:00,85.0,77.0,-100.00,SE,132,17.0,-999.0,78,0.00,,,-99.99,,2013-08-04 01:42:00,
2013-08-03 20:53:00,85.0,77.0,-100.00,SE,132,17.0,-999.0,78,0.00,,,-99.99,,2013-08-04 01:53:00,
2013-08-03 21:00:00,84.0,79.0,-100.00,SE,124,16.0,-999.0,83,0.00,,,-99.99,,2013-08-04 02:00:00,
2013-08-03 21:22:00,84.0,79.0,-100.00,SE,124,16.0,-999.0,83,0.00,,,-99.99,,2013-08-04 02:22:00,
2013-08-03 21:32:00,84.0,79.0,-100.00,SE,124,16.0,-999.0,83,0.00,,,-99.99,,2013-08-04 02:32:00,
2013-08-03 21:42:00,84.0,79.0,-100.00,SE,124,16.0,-999.0,83,0.00,,,-99.99,,2013-08-04 02:42:00,
2013-08-03 21:52:00,84.0,79.0,-100.00,SE,124,16.0,-999.0,83,0.00,,,-99.99,,2013-08-04 02:52:00,
2013-08-03 22:00:00,84.0,79.0,-100.00,SE,126,18.0,-999.0,83,0.00,,,-99.99,,2013-08-04 03:00:00,
2013-08-03 22:22:00,84.0,79.0,-100.00,SE,126,18.0,-999.0,83,0.00,,,-99.99,,2013-08-04 03:22:00,
2013-08-03 22:32:00,84.0,79.0,-100.00,SE,126,18.0,-999.0,83,0.00,,,-99.99,,2013-08-04 03:32:00,
2013-08-03 22:42:00,84.0,79.0,-100.00,SE,126,18.0,-999.0,83,0.00,,,-99.99,,2013-08-04 03:42:00,
2013-08-03 22:52:00,84.0,79.0,-100.00,SE,126,18.0,-999.0,83,0.00,,,-99.99,,2013-08-04 03:52:00,
2013-08-03 23:00:00,84.0,79.0,-100.00,SE,130,20.0,-999.0,84,0.00,,,-99.99,,2013-08-04 04:00:00,
2013-08-03 23:22:00,84.0,79.0,-100.00,SE,130,20.0,-999.0,84,0.00,,,-99.99,,2013-08-04 04:22:00,
2013-08-03 23:32:00,84.0,79.0,-100.00,SE,130,20.0,-999.0,84,0.00,,,-99.99,,2013-08-04 04:32:00,
2013-08-03 23:42:00,84.0,79.0,-100.00,SE,130,20.0,-999.0,84,0.00,,,-99.99,,2013-08-04 04:42:00,
2013-08-03 23:52:00,84.0,79.0,-100.00,SE,130,20.0,-999.0,84,0.00,,,-99.99,,2013-08-04 04:52:00,